Home   Weather   Cleveland   Past weeks

Flag for USA Past Weather in Cleveland, Tennessee, USA — Yesterday and Last 2 Weeks

Now
43 °F

Mostly cloudy.


Feels Like: 41 °F
Forecast: 28 / 42 °F
Wind: 3 mph from Northwest

Location: Lovell Field

Current Time: Dec 8, 2016 at 1:08:06 am

Latest Report: Dec 7, 2016 at 11:53 pm


Visibility: 10 mi

Pressure: 30.15 "Hg

Humidity: 76%

Dew Point: 36 °F

Location of ClevelandLocation

Past Weather in Cleveland — Graph

°F

Cleveland Temperature Yesterday

Maximum temperature yesterday: 56 °F (at 2:53 pm)
Minimum temperature yesterday: 43 °F (at 11:53 pm)
Average temperature yesterday: 48 °F

High & Low Weather Summary for the Past Weeks

 TemperatureHumidityPressure
High72 °F (Nov 29, 2:53 pm)97% (Nov 24, 6:04 am)30.39 "Hg (Nov 24, 6:04 am)
Low27 °F (Nov 27, 5:53 am)30% (Nov 23, 2:53 pm)29.61 "Hg (Nov 28, 7:53 pm)
Average51 °F72%30.06 "Hg
* Reported Nov 22 11:53 pm — Dec 7 11:53 pm, Cleveland, Weather by CustomWeather, © 2016

Note: Actual official high and low records may vary slightly from our data, if they occured in-between our weather recording intervals... More about our weather records

Advertising

Cleveland Weather History for the Previous 24 Hours

Scroll right to see more
 ConditionsComfort  
Time TempWeatherWind HumidityBarometerVisibility
11:53 pm
Wed, Dec 7
43 °FMostly cloudy.3 mph76%30.15 "Hg10 mi
10:53 pm44 °FMostly cloudy.5 mph73%30.14 "Hg10 mi
9:53 pm45 °FMostly cloudy.8 mph71%30.16 "Hg10 mi
8:53 pm46 °FPassing clouds.10 mph68%30.14 "Hg10 mi
7:53 pm47 °FPassing clouds.7 mph71%30.13 "Hg10 mi
6:53 pm49 °FPassing clouds.8 mph66%30.10 "Hg10 mi
5:53 pm51 °FPartly cloudy.7 mph59%30.08 "Hg10 mi
4:53 pm54 °FBroken clouds.6 mph53%30.07 "Hg10 mi
3:53 pm55 °FPartly sunny.8 mph51%30.05 "Hg10 mi
2:53 pm56 °FScattered clouds.5 mph49%30.05 "Hg10 mi
1:53 pm53 °FScattered clouds.No wind55%30.05 "Hg10 mi
12:53 pm52 °FScattered clouds.5 mph59%30.06 "Hg10 mi
11:53 am51 °FScattered clouds.3 mph61%30.09 "Hg10 mi
10:53 am50 °FScattered clouds.8 mph61%30.11 "Hg10 mi
9:53 am48 °FScattered clouds.14 mph63%30.09 "Hg10 mi
8:53 am46 °FScattered clouds.10 mph68%30.08 "Hg10 mi
7:53 am44 °FPartly sunny.7 mph76%30.09 "Hg10 mi
6:53 am44 °FPassing clouds.9 mph76%30.07 "Hg10 mi
5:53 am44 °FPassing clouds.8 mph76%30.05 "Hg10 mi
4:53 am44 °FOvercast.9 mph73%30.04 "Hg10 mi
3:53 am45 °FOvercast.8 mph76%30.05 "Hg10 mi
2:53 am44 °FPassing clouds.6 mph76%30.04 "Hg10 mi
1:53 am46 °FPassing clouds.10 mph73%30.03 "Hg10 mi
Weather by CustomWeather, © 2016

See weather overviewHow to use our weather pages